Regional Weather Roundup
Issued by NWS

Home | Current Version | Previous Version | Graphics & Text | Print | Product List | Glossary On
Versions: 1 2 3 4 5 6 7 8 9 10 11 12 13 14 15 16 17 18 19 20 21 22 23 24 25 26 27 28 29 30 31 32 33 34 35 36 37 38 39 40 41 42 43 44 45 46 47 48 49 50
000
ASUS43 KTOP 281608
RWRKS

WEATHER ROUNDUP FOR KANSAS
NATIONAL WEATHER SERVICE GOODLAND KS
1100 AM CDT SAT MAY 28 2016

NOTE:  "FAIR" INDICATES FEW OR NO CLOUDS BELOW 12,000 FEET WITH NO
SIGNIFICANT WEATHER AND/OR OBSTRUCTIONS TO VISIBILITY.

KSZ001>006-013>018-027>032-041>047-281700-
NORTHWEST KANSAS

CITY           SKY/WX    TMP DP  RH WIND       PRES   REMARKS
GOODLAND       SUNNY     64  49  57 W7        29.99R
HAYS           MOSUNNY   64  52  63 W9        29.93S
HILL CITY      SUNNY     69  54  58 VRB7      29.94R
RUSSELL        MOSUNNY   66  56  70 NW12      29.91R
$$

KSZ061>065-074>080-084>089-281700-
SOUTHWEST KANSAS

CITY           SKY/WX    TMP DP  RH WIND       PRES   REMARKS
DODGE CITY     SUNNY     68  52  56 NW12      29.97R
ELKHART          N/A     67  47  48 N3          N/A
GARDEN CITY    SUNNY     68  48  48 NW10      29.98S
GREAT BEND     MOSUNNY   64  52  63 W13       29.94R
LIBERAL        SUNNY     68  48  49 NW6       30.02R
PRATT          SUNNY     67  52  59 W12       29.95R
$$

KSZ066>073-081>083-090>101-281700-
SOUTHEAST KANSAS

CITY           SKY/WX    TMP DP  RH WIND       PRES   REMARKS
CHANUTE        MOSUNNY   70  61  73 SW14      29.90R
COFFEYVILLE    MOSUNNY   73  62  68 SW10      29.91R
HUTCHINSON     MOSUNNY   69  58  67 W12       29.92R
MEDICINE LODGE   N/A     74  53  48 NW10      29.93S
NEWTON         MOSUNNY   68  55  64 W10       29.93R
PARSONS        PTSUNNY   71  62  73 SW10      29.92R
WICHITA INTL   MOSUNNY   71  59  65 NW9       29.91R
WICHITA JABRA  MOSUNNY   69  60  73 W8        29.91R
WICHITA MCCONL SUNNY     69  58  69 W13       29.91R
WINFIELD       SUNNY     71  59  65 W9        29.92S
$$

KSZ007>012-019>026-033>040-048>060-102>105-281700-
NORTHEAST KANSAS

CITY           SKY/WX    TMP DP  RH WIND       PRES   REMARKS
CONCORDIA      MOSUNNY   68  57  68 W12       29.88R
EMPORIA        MOSUNNY   68  59  73 W9        29.89R
LAWRENCE       CLOUDY    68  61  78 SW12      29.85R
MANHATTAN      PTSUNNY   68  58  70 W12       29.87R
MARYSVILLE     PTSUNNY   64  59  82 W9        29.85R
OLATHE IND     CLOUDY    68  61  78 SW15      29.87R
OLATHE EXE     CLOUDY    67  59  75 SW10      29.86R
SALINA         MOSUNNY   69  58  67 W13       29.90R
TOPEKA BILLARD MOSUNNY   69  59  70 W10       29.84R
TOPEKA FORBES  PTSUNNY   71  61  70 W12       29.85R
$$




USA.gov is the U.S. government's official web portal to all federal, state and local government web resources and services.